Location: Sternwarte_Laufen
(47.9344°N, 12.9346°E)
Time: 00:36:09
(UTC+02:00)

Envisat - Pass Details

Date: 14 May 2026
Orbit: 761 x 763 km, 98.4° (Epoch: 7 June)

Event Time Altitude Azimuth Distance (km) Brightness Sun altitude
Rises 04:49:58 0° 6° (N) 3,236 7.0 -6.6°
Reaches altitude 10° 04:52:27 10° 357° (N) 2,306 6.0 -6.3°
Maximum altitude 04:56:57 33° 295° (WNW) 1,274 3.9 -5.7°
Drops below altitude 10° 05:01:24 10° 233° (SW) 2,291 4.8 -5.1°
Enters shadow 05:02:25 - 229° (SW) 2,661 5.1 -4.9°
